Location: Nitta Yuma
(33.0242°N, 90.8483°W)
Time: 17:00:13
(UTC+00:00)

ISS - Visible Passes

Search period start: 22 April 2021 00:00
Search period end: 02 May 2021 00:00
Orbit: 418 x 421 km, 51.6° (Epoch: 22 April)

Date Brightness Start Highest point End Pass type
(mag) Time Alt. Az. Time Alt. Az. Time Alt. Az.
23 Apr -3.5 10:41:06 10° SW 10:44:27 70° SE 10:47:49 10° NE visible
24 Apr -2.5 09:55:56 25° S 09:57:09 34° SE 10:00:15 10° ENE visible
25 Apr -1.2 09:10:41 17° ESE 09:10:41 17° ESE 09:12:20 10° E visible
25 Apr -2.6 10:43:40 11° WSW 10:46:32 32° NW 10:49:36 10° NNE visible
26 Apr -3.6 09:58:19 43° W 09:59:06 58° NW 10:02:27 10° NE visible
27 Apr -2.3 09:12:52 38° ENE 09:12:52 38° ENE 09:15:06 10° NE visible
27 Apr -1.3 10:47:14 10° WNW 10:48:53 13° NNW 10:50:32 10° N visible
28 Apr -0.3 08:27:22 11° ENE 08:27:22 11° ENE 08:27:32 10° ENE visible
28 Apr -1.9 10:00:19 17° WNW 10:01:19 19° NW 10:03:51 10° NNE visible
29 Apr -1.9 09:14:44 26° N 09:14:44 26° N 09:16:51 10° NNE visible
30 Apr -0.5 08:29:06 14° NE 08:29:06 14° NE 08:29:41 10° NE visible
01 May -1.1 09:16:21 13° NNW 09:16:21 13° NNW 09:17:44 10° N visible
